Погода Укмерге

Поиск расширенной информации на нашем сайте:

Полезная информация:

Новости сайта



02.01.2020
Опубликован Долгосрочный прогноз погоды по городам России и ближнего зарубежья на январь 2020 года.
Карты: Прогноз на январь и февраль 2020 года, Сравнение прогнозируемой аномалии приземной температуры воздуха на январь 2020 года по разным моделям.




Погода Укмерге - сегодня

Время (UTC), дата Ветер
(°,м/с) 
Видим.   Явления Облачность Т
(°С)
Тd
(°С)
f(%) Тe
(°С)
Pmin
(гПа)
dP
(гПа)
Po
(мм)
O2
(г/м3)
Тmin Tmax R s Состояние
почвы
00 16.01.22 250 (З) 3-4{06}  20000 м    9/0 
-1.4 -3 89 -3  1019.6  758  307           
03 16.01.22 200 (Ю) 2-3{05}  18000 м    ясно 
-2.2 -3.1 94 -3  1019.1  -0.6  757  308           
06 16.01.22 220 (ЮЗ) 3-6{06}  19000 м    9/9 200 м 
-1.5 -2.3 94 -3  1017.4  -1.6  756  307  -2.2         
09 16.01.22 250 (З) 4-8{09}  8000 м  дымка  10/10 300 м 
+0.2 -0.8 93 -2  1016.5  -0.9  755  304           
12 16.01.22 220 (ЮЗ) 4-8{10}  19000 м  слаб. дождь со снегом  9/9 1000 м 
+0 -2.7 82 -2  1013.5  -2.9  753  304      0.0     
15 16.01.22 220 (ЮЗ) 4-8{10}  10 км  слаб. снег  10/10 300 м 
-0.5 -3.4 81 -3  1011.1  -2.4  751  304           
18 16.01.22 210 (ЮЗ) 4-9{10}  6000 м  в посл. час снег  9/9 300 м 
-1.4 -3.2 88 -4  1007.1  -4  748  303    +0.4  0.1     
21 16.01.22 220 (ЮЗ) 4-8{13}  4800 м  слаб. переохл. морось (гололёд)  10/10 200 м 
-1 -1.8 94 -4  1003.2  -3.9  746  302           
00 17.01.22 230 (ЮЗ) 6-11{12}  9000 м  слаб. ливневой дождь  10/10 200 м 
+0.9 -0.3 92 -2  997.8  -5.3  742  298      0.0     
03 17.01.22 240 (ЮЗ) 8-15{19}  16000 м  сильн. морось  10/10 300 м 
+2.2 +0.7 90 -2  991.5  -6.2  737  294           
06 17.01.22 240 (ЮЗ) 7-13{16}  4900 м  дождь со снегом  10/10 300 м 
+0.9 +0.1 94 -3  985.3  -6.2  732  294  -1.5       
09 17.01.22 320 (СЗ) 10-14{22}  16000 м  слаб. снег  9/9 300 м 
+0.2 -0.9 92 -5  987.5  2.2  734  296         
12 17.01.22 290 (З) 11-17{20}  2500 м  слаб. снег  9/9 300 м 
-0.3 -1.9 89 -6  989.9  2.4  736  297       
15 17.01.22 330 (СЗ) 14-20{24}  11000 м  слаб. переохл. дождь (гололёд)  10/10 300 м 
-0.5 -2.7 85 -6  996.5  6.5  741  299         
18 17.01.22 330 (СЗ) 11-15{22}  20000 м  в посл. час снег  ясно 
-1.5 -5.8 72 -7  1005.6  747  303    +1.3   
21 17.01.22 320 (СЗ) 8-12{17}  20000 м    ясно 
-2.6 -6.7 73 -7  1010.7  751  306         
00 18.01.22 300 (СЗ) 7-9{12}  20000 м  слаб. ливневой снег  9/9 1500 м 
-1.9 -4.7 81 -6  1013.5  2.8  753  306      0.0   
03 18.01.22 320 (СЗ) 7-10{11}  20000 м    ясно 
-1.7 -4.5 81 -6  1015.6  2.1  755  307         
06 18.01.22 330 (СЗ) 5-8{11}  20000 м    ясно 
-2.7 -5.8 79 -6  1019.6  3.9  758  309  -2.8       
09 18.01.22 320 (СЗ) 5-7{08}  20000 м    ясно 
-1.9 -5.4 77 -5  1023.2  3.6  760  309         
12 18.01.22 310 (СЗ) 4-6{09}  20000 м    1/0 
-0.7 -4.4 76 -3  1025  1.8  762  308         
15 18.01.22 270 (З) 3-5{07}  20000 м    ясно 
-2.4 -5.4 80 -4  1026.7  1.7  763  311         
18 18.01.22 220 (ЮЗ) 2-4{05}  5000 м  дымка  8/0 
-2.8 -4.8 86 -4  1026.4  -0.3  763  311    -0.5     
21 18.01.22 230 (ЮЗ) 2-4{04}  19000 м    9/0 
-2.7 -4 91 -4  1025.8  -0.6  762  311         
00 19.01.22 210 (ЮЗ) 3-7{07}  18000 м    9/9 200 м 
-1.8 -2.6 94 -4  1023.2  -2.6  760  309         
Время (UTC), дата Ветер
(°,м/с) 
Видим.   Явления Облачность Т
(°С)
Тd
(°С)
f(%) Тe
(°С)
Pmin
(гПа)
dP
(гПа)
Po
(мм)
O2
(г/м3)
Тmin Tmax R s Состояние
почвы

Для получения пояснительной информации подведите курсор к названию столбца.

ПОГОДА Укмерге - архив

Всё, что Вы хотите узнать о погоде Укмерге - удобно и подробно!

Выберите нужную дату (начиная с 1 января 2019* года) и нажмите кнопку "Найти".
Будут отображены архивные сводки погоды по пункту Укмерге, начиная с указанной даты.


Отображать данные в формате CSV (для использования в таблицах Excel)


Внимание! Наш архив погоды предназначен исключительно для личного некоммерческого использования в познавательных целях. Если Вам необходимы официальные справки о состоянии погоды (для производственных, юридических, коммерческих и т.п. целей), обращайтесь в органы Росгидромета.

*Примечание: данная дата относится к архиву по метеостанциям СССР (Россия, СНГ, Балтия).
Архив по метеостанциям Зарубежной Европы и Азии (кроме Китая) хранится 10 дней, по другим регионам земного шара (Китай, Африка, Америка, Австралия, Океания) - 1 день.

Укмерге - район местоположения метеостанции


Название, широта, долгота, высота метеостанции:
Укмерге 55.2°ш. 24.8°д. 73 м над ур. моря [Литва]

Дополнительная информация

В oтличие oт бoльшинства пoгoдных сайтoв мы публикуем пoдрoбную метеoинфoрмацию в детальнoм прoфессиoнальнoм фoрмате.

Характеристики температуры и влажнoсти вoздуха измеряются на высoте 2 м в тени вдали oт зданий и деревьев.
Скoрoсть ветра измеряется на высoте 10 м (на урoвне рoста челoвека скoрoсть ветра ниже в 1.5-2 раза). Если метеoстанция нахoдится в гoрoде или в лесу, тo скoрoсть ветра занижена на 2-4 м/с пo сравнению с oткрытым местoм. Скoрoсть ветра над акватoриями крупных рек и oзёр, а также на вершинах хoлмoв на 2-5 м/с выше, чем в oбычных услoвиях.
Атмoсфернoе давление в разных тoчках местнoсти мoжет значительнo oтличаться oт давления на метеoстанции, в зависимoсти oт услoвий рельефа (при пoдъёме на 10 м давление пoнижается примернo на 1 мм рт.ст.).